{"data":{"norad_id":66252,"epoch":"2026-09-20T21:44:44.328768Z","epoch_age_seconds":61522,"freshness":"FRESH","line1":"1 66252U 25245U   26263.90606862  .00014187  00000+0  43033-3 0  9991","line2":"2 66252  53.1586  95.8149 0001351 102.3502 257.7652 15.34390929 51117","mean_motion":15.34390929,"eccentricity":0.0001351,"inclination_deg":53.1586,"raan_deg":95.8149,"arg_perigee_deg":102.3502,"mean_anomaly_deg":257.7652,"bstar":0.00043033,"rev_number":5111,"period_min":93.848312889759,"perigee_km":461.80600010466,"apogee_km":463.65440242245,"semimajor_km":6840.8672012636,"source":"CELESTRAK","updated_at":"2026-09-21T09:00:35.849577Z"}}